Time,TemperatureF,DewpointF,PressureIn,WindDirection,WindDirectionDegrees,WindSpeedMPH,WindSpeedGustMPH,Humidity,HourlyPrecipIn,Conditions,Clouds,dailyrainin,SolarRadiationWatts/m^2,SoftwareType,DateUTC
2014-09-01 00:02:00,58.0,31.0,-100.00,NW,312,4.0,8.0,35,0.00,,,0.00,0.000000,,2014-09-01 06:02:00,
2014-09-01 00:22:00,58.0,31.0,-100.00,NW,312,4.0,8.0,35,0.00,,,0.00,0.000000,,2014-09-01 06:22:00,
2014-09-01 00:52:00,52.0,32.0,-100.00,NNW,337,4.0,6.0,46,0.00,,,-99.99,0.000000,,2014-09-01 06:52:00,
2014-09-01 01:12:00,52.0,32.0,-100.00,NNW,337,4.0,6.0,46,0.00,,,-99.99,0.000000,,2014-09-01 07:12:00,
2014-09-01 01:21:00,52.0,32.0,-100.00,NNW,337,4.0,6.0,46,0.00,,,-99.99,0.000000,,2014-09-01 07:21:00,
2014-09-01 02:02:00,53.0,30.0,-100.00,NNW,342,2.0,6.0,41,0.00,,,0.00,0.000000,,2014-09-01 08:02:00,
2014-09-01 02:22:00,53.0,30.0,-100.00,NNW,342,2.0,6.0,41,0.00,,,0.00,0.000000,,2014-09-01 08:22:00,
2014-09-01 02:52:00,49.0,32.0,-100.00,NW,324,2.0,4.0,51,0.00,,,0.00,0.000000,,2014-09-01 08:52:00,
2014-09-01 03:22:00,49.0,32.0,-100.00,NW,324,2.0,4.0,51,0.00,,,0.00,0.000000,,2014-09-01 09:22:00,
2014-09-01 03:54:00,51.0,30.0,-100.00,NNW,330,3.0,5.0,44,0.00,,,0.00,0.000000,,2014-09-01 09:54:00,
2014-09-01 04:04:00,51.0,30.0,-100.00,NNW,330,3.0,5.0,44,0.00,,,0.00,0.000000,,2014-09-01 10:04:00,
2014-09-01 04:13:00,51.0,30.0,-100.00,NNW,330,3.0,5.0,44,0.00,,,0.00,0.000000,,2014-09-01 10:13:00,
2014-09-01 04:23:00,51.0,30.0,-100.00,NNW,330,3.0,5.0,44,0.00,,,0.00,0.000000,,2014-09-01 10:23:00,
2014-09-01 05:13:00,47.0,31.0,-100.00,NE,49,1.0,4.0,53,0.00,,,-99.99,0.000000,,2014-09-01 11:13:00,
2014-09-01 05:23:00,47.0,31.0,-100.00,NE,49,1.0,4.0,53,0.00,,,-99.99,0.000000,,2014-09-01 11:23:00,
2014-09-01 05:52:00,46.0,31.0,-100.00,NE,37,2.0,3.0,55,0.00,,,0.00,0.000000,,2014-09-01 11:52:00,
2014-09-01 06:12:00,46.0,31.0,-100.00,NE,37,2.0,3.0,55,0.00,,,0.00,0.000000,,2014-09-01 12:12:00,
2014-09-01 06:53:00,44.0,30.0,-100.00,ENE,77,2.0,4.0,58,0.00,,,0.00,0.000000,,2014-09-01 12:53:00,
2014-09-01 07:53:00,44.0,30.0,-100.00,ESE,113,1.0,3.0,58,0.00,,,0.00,3.000000,,2014-09-01 13:53:00,
2014-09-01 08:12:00,44.0,30.0,-100.00,ESE,113,1.0,3.0,58,0.00,,,0.00,3.000000,,2014-09-01 14:12:00,
2014-09-01 09:12:00,54.0,34.0,-100.00,NNW,340,1.0,3.0,46,0.00,,,0.00,129.000000,,2014-09-01 15:12:00,
2014-09-01 09:24:00,64.0,37.0,-100.00,ESE,109,3.0,4.0,36,0.00,,,0.00,359.000000,,2014-09-01 15:24:00,
2014-09-01 10:13:00,64.0,37.0,-100.00,ESE,109,3.0,4.0,36,0.00,,,0.00,359.000000,,2014-09-01 16:13:00,
2014-09-01 10:54:00,68.0,32.0,-100.00,SSW,207,7.0,14.0,26,0.00,,,0.00,597.000000,,2014-09-01 16:54:00,
2014-09-01 11:13:00,68.0,32.0,-100.00,SSW,207,7.0,14.0,26,0.00,,,0.00,597.000000,,2014-09-01 17:13:00,
2014-09-01 12:03:00,70.0,33.0,-100.00,SSW,206,7.0,14.0,25,0.00,,,0.00,800.000000,,2014-09-01 18:03:00,
2014-09-01 12:12:00,70.0,33.0,-100.00,SSW,206,7.0,14.0,25,0.00,,,0.00,800.000000,,2014-09-01 18:12:00,
2014-09-01 12:22:00,70.0,33.0,-100.00,SSW,206,7.0,14.0,25,0.00,,,0.00,800.000000,,2014-09-01 18:22:00,
2014-09-01 12:52:00,71.0,32.0,-100.00,SW,223,8.0,17.0,24,0.00,,,0.00,951.000000,,2014-09-01 18:52:00,
2014-09-01 13:21:00,71.0,32.0,-100.00,SW,223,8.0,17.0,24,0.00,,,0.00,951.000000,,2014-09-01 19:21:00,
2014-09-01 14:12:00,74.0,33.0,-100.00,West,265,11.0,19.0,22,0.00,,,0.00,1035.000000,,2014-09-01 20:12:00,